�������l�o���
Date,Time,MP-1(��Sv/h),MP-2(��Sv/h),MP-3(��Sv/h),MP-4(��Sv/h),MP-5(��Sv/h),MP-6(��Sv/h),MP-7(��Sv/h),MP-8(��Sv/h),����,����(m/s),���J
2017/08/22,00:00,0.931,1.461,0.963,1.740,1.190,0.515,0.933,0.863,��,4.9,��
2017/08/22,00:10,0.929,1.462,0.963,1.739,1.192,0.514,0.933,0.863,��,4.9,��
2017/08/22,00:20,0.929,1.462,0.964,1.737,1.193,0.513,0.933,0.862,��,5.0,��
2017/08/22,00:30,0.928,1.462,0.965,1.740,1.189,0.513,0.932,0.861,��,5.0,��
2017/08/22,00:40,0.932,1.460,0.962,1.740,1.190,0.514,0.934,0.863,��,4.9,��
2017/08/22,00:50,0.931,1.461,0.964,1.740,1.190,0.513,0.934,0.862,��,6.1,��
2017/08/22,01:00,0.931,1.460,0.963,1.740,1.192,0.513,0.935,0.864,��,6.2,��
2017/08/22,01:10,0.928,1.463,0.963,1.740,1.190,0.512,0.931,0.864,��,7.0,��
2017/08/22,01:20,0.931,1.461,0.965,1.740,1.191,0.513,0.933,0.863,��쐼,6.9,��
2017/08/22,01:30,0.930,1.461,0.963,1.737,1.190,0.512,0.931,0.862,��,6.1,��
2017/08/22,01:40,0.932,1.462,0.962,1.742,1.192,0.513,0.933,0.863,��,5.5,��
2017/08/22,01:50,0.930,1.457,0.963,1.740,1.192,0.513,0.933,0.863,��,5.1,��
2017/08/22,02:00,0.931,1.459,0.965,1.739,1.194,0.513,0.934,0.862,��,5.0,��
2017/08/22,02:10,0.929,1.459,0.964,1.740,1.193,0.512,0.932,0.862,��,6.0,��
2017/08/22,02:20,0.931,1.462,0.962,1.742,1.189,0.514,0.932,0.861,��,6.3,��
2017/08/22,02:30,0.931,1.462,0.965,1.740,1.192,0.514,0.934,0.863,��,6.3,��
2017/08/22,02:40,0.930,1.461,0.965,1.742,1.191,0.513,0.932,0.864,��,6.0,��
2017/08/22,02:50,0.930,1.460,0.964,1.742,1.191,0.513,0.935,0.862,��,5.2,��
2017/08/22,03:00,0.929,1.461,0.963,1.742,1.190,0.512,0.934,0.863,��,4.3,��
2017/08/22,03:10,0.931,1.460,0.961,1.740,1.193,0.513,0.933,0.863,��,4.5,��
2017/08/22,03:20,0.930,1.460,0.962,1.740,1.192,0.513,0.933,0.865,��,4.9,��
2017/08/22,03:30,0.931,1.461,0.963,1.742,1.193,0.514,0.933,0.862,��,4.0,��
2017/08/22,03:40,0.929,1.463,0.965,1.740,1.192,0.511,0.931,0.864,��쐼,4.1,��
2017/08/22,03:50,0.930,1.460,0.963,1.741,1.191,0.512,0.932,0.863,��,4.1,��
2017/08/22,04:00,0.932,1.460,0.964,1.741,1.193,0.512,0.934,0.863,��,4.5,��
2017/08/22,04:10,0.932,1.461,0.963,1.743,1.191,0.513,0.932,0.864,��,4.7,��
2017/08/22,04:20,0.932,1.460,0.964,1.739,1.192,0.512,0.933,0.863,��,5.7,��
2017/08/22,04:30,0.932,1.463,0.965,1.741,1.192,0.511,0.934,0.864,��,5.1,��
2017/08/22,04:40,0.932,1.462,0.963,1.740,1.190,0.512,0.933,0.862,��,5.9,��
2017/08/22,04:50,0.932,1.462,0.962,1.740,1.192,0.514,0.933,0.864,��,5.9,��
2017/08/22,05:00,0.931,1.461,0.965,1.740,1.192,0.513,0.933,0.864,��,5.9,��
2017/08/22,05:10,0.931,1.461,0.965,1.740,1.194,0.511,0.933,0.864,��,5.8,��
2017/08/22,05:20,0.931,1.460,0.965,1.741,1.192,0.514,0.933,0.863,��,5.4,��
2017/08/22,05:30,0.933,1.460,0.964,1.741,1.191,0.513,0.934,0.863,��,5.3,��
2017/08/22,05:40,0.930,1.462,0.965,1.744,1.188,0.512,0.936,0.862,��,5.2,��
2017/08/22,05:50,0.932,1.459,0.965,1.741,1.191,0.513,0.935,0.862,��,5.3,��
2017/08/22,06:00,0.932,1.462,0.965,1.741,1.191,0.513,0.934,0.864,��쐼,4.7,��
2017/08/22,06:10,0.930,1.464,0.961,1.740,1.192,0.514,0.934,0.863,��쐼,4.6,��
2017/08/22,06:20,0.930,1.461,0.963,1.744,1.191,0.513,0.933,0.864,��,4.8,��
2017/08/22,06:30,0.931,1.462,0.962,1.743,1.192,0.512,0.934,0.864,��,4.3,��
2017/08/22,06:40,0.930,1.462,0.962,1.741,1.193,0.512,0.934,0.864,��,3.6,��
2017/08/22,06:50,0.927,1.465,0.960,1.744,1.193,0.514,0.935,0.863,��,4.2,��
2017/08/22,07:00,0.930,1.463,0.947,1.741,1.193,0.513,0.935,0.863,��,4.1,��
2017/08/22,07:10,0.930,1.464,0.948,1.740,1.191,0.513,0.934,0.864,��,4.8,��
2017/08/22,07:20,0.931,1.462,0.948,1.744,1.192,0.512,0.933,0.864,��,6.1,��
2017/08/22,07:30,0.930,1.462,0.950,1.742,1.193,0.514,0.934,0.864,��,5.5,��
2017/08/22,07:40,0.929,1.464,0.949,1.743,1.193,0.512,0.935,0.863,��,3.9,��
2017/08/22,07:50,0.934,1.463,0.949,1.742,1.194,0.512,0.936,0.863,��,4.4,��
2017/08/22,08:00,0.934,1.461,0.948,1.746,1.193,0.512,0.933,0.865,��,4.4,��
2017/08/22,08:10,0.933,1.462,0.950,1.748,1.193,0.514,0.935,0.864,��,4.3,��
2017/08/22,08:20,0.935,1.463,0.951,1.741,1.196,0.515,0.935,0.862,��,4.8,��
2017/08/22,08:30,0.934,1.464,0.952,1.744,1.197,0.513,0.935,0.861,��,5.1,��
2017/08/22,08:40,0.937,1.463,0.951,1.745,1.196,0.514,0.934,0.861,��,5.6,��
2017/08/22,08:50,0.933,1.467,0.953,1.745,1.194,0.515,0.932,0.859,��,4.9,��
2017/08/22,09:00,0.938,1.464,0.950,1.746,1.196,0.516,0.935,0.861,��,4.5,��
2017/08/22,09:10,0.937,1.462,0.953,1.746,1.195,0.516,0.935,0.861,��,4.0,��
2017/08/22,09:20,0.935,1.467,0.950,1.747,1.195,0.517,0.933,0.862,��쓌,5.5,��
2017/08/22,09:30,0.935,1.466,0.951,1.747,1.196,0.516,0.935,0.860,��쓌,5.9,��
2017/08/22,09:40,0.939,1.466,0.952,1.748,1.198,0.516,0.935,0.864,��,5.7,��
2017/08/22,09:50,0.937,1.470,0.952,1.747,1.198,0.516,0.934,0.861,��,5.1,��
2017/08/22,10:00,0.938,1.469,0.954,1.747,1.199,0.516,0.934,0.864,��,4.2,��
2017/08/22,10:10,0.936,1.465,0.953,1.747,1.198,0.515,0.933,0.863,��,3.7,��
2017/08/22,10:20,0.938,1.465,0.952,1.747,1.198,0.515,0.936,0.863,��,3.9,��
2017/08/22,10:30,0.936,1.466,0.952,1.748,1.197,0.515,0.935,0.863,��,3.1,��
2017/08/22,10:40,0.937,1.467,0.954,1.748,1.200,0.517,0.937,0.862,��쓌,3.9,��
2017/08/22,10:50,0.938,1.468,0.955,1.751,1.200,0.516,0.938,0.862,��쓌,4.9,��
2017/08/22,11:00,0.936,1.470,0.952,1.748,1.200,0.516,0.936,0.862,��,5.3,��
2017/08/22,11:10,0.938,1.469,0.954,1.754,1.201,0.516,0.935,0.864,��,5.4,��
2017/08/22,11:20,0.939,1.470,0.951,1.749,1.201,0.517,0.937,0.863,��,5.6,-
2017/08/22,11:30,0.940,1.471,0.952,1.751,1.201,0.517,0.937,0.865,��,5.4,�L
2017/08/22,11:40,0.941,1.472,0.952,1.747,1.203,0.517,0.937,0.864,��,5.8,��
2017/08/22,11:50,0.937,1.473,0.953,1.748,1.201,0.516,0.938,0.865,��,5.1,��
2017/08/22,12:00,0.942,1.473,0.953,1.753,1.201,0.516,0.940,0.863,��,4.4,��
2017/08/22,12:10,0.943,1.473,0.953,1.749,1.203,0.515,0.937,0.862,��,4.4,��
2017/08/22,12:20,0.941,1.474,0.956,1.753,1.205,0.517,0.937,0.864,��,4.4,�L
2017/08/22,12:30,0.941,1.476,0.956,1.753,1.206,0.514,0.939,0.864,��,4.8,�L
2017/08/22,12:40,0.940,1.476,0.958,1.753,1.205,0.515,0.937,0.864,��,3.9,��
2017/08/22,12:50,0.942,1.478,0.957,1.753,1.206,0.515,0.938,0.865,��,4.8,��
2017/08/22,13:00,0.940,1.474,0.958,1.755,1.205,0.515,0.939,0.864,��,4.8,��
2017/08/22,13:10,0.943,1.477,0.962,1.753,1.205,0.517,0.938,0.864,��,5.0,��
2017/08/22,13:20,0.944,1.474,0.974,1.753,1.208,0.515,0.936,0.863,��,4.9,��
2017/08/22,13:30,0.943,1.475,0.973,1.752,1.208,0.515,0.937,0.865,��,5.4,��
2017/08/22,13:40,0.944,1.474,0.974,1.749,1.207,0.516,0.938,0.865,��,5.7,��
2017/08/22,13:50,0.944,1.475,0.973,1.754,1.207,0.516,0.937,0.866,��,4.7,��
2017/08/22,14:00,0.945,1.478,0.973,1.751,1.206,0.515,0.937,0.865,��,5.0,��
2017/08/22,14:10,0.948,1.479,0.974,1.754,1.207,0.517,0.936,0.863,��,5.9,��
2017/08/22,14:20,0.945,1.481,0.976,1.751,1.208,0.516,0.938,0.863,��,5.6,��
2017/08/22,14:30,0.947,1.478,0.974,1.753,1.207,0.518,0.936,0.864,��,5.4,��
2017/08/22,14:40,0.944,1.477,0.975,1.754,1.209,0.519,0.937,0.866,��,6.4,��
2017/08/22,14:50,0.947,1.480,0.977,1.757,1.210,0.517,0.937,0.866,��,6.0,��
2017/08/22,15:00,0.946,1.480,0.977,1.755,1.209,0.517,0.939,0.866,��,5.8,��
2017/08/22,15:10,0.945,1.478,0.977,1.757,1.210,0.517,0.937,0.865,��,5.6,�L
2017/08/22,15:20,0.948,1.479,0.978,1.757,1.211,0.518,0.937,0.864,��,4.3,�L
2017/08/22,15:30,0.948,1.481,0.977,1.756,1.207,0.516,0.938,0.867,��,4.4,��
2017/08/22,15:40,0.946,1.478,0.978,1.755,1.211,0.518,0.939,0.865,��,6.6,��
2017/08/22,15:50,0.950,1.477,0.978,1.755,1.210,0.518,0.940,0.865,��,6.2,��
2017/08/22,16:00,0.948,1.479,0.977,1.758,1.211,0.516,0.939,0.866,��,4.6,��
2017/08/22,16:10,0.945,1.479,0.978,1.756,1.211,0.516,0.941,0.865,��,4.1,��
2017/08/22,16:20,0.948,1.482,0.980,1.759,1.209,0.517,0.942,0.865,��,5.2,��
2017/08/22,16:30,0.948,1.480,0.980,1.754,1.210,0.517,0.940,0.867,��,5.0,��
2017/08/22,16:40,0.946,1.480,0.978,1.758,1.211,0.515,0.940,0.867,��,4.8,��
2017/08/22,16:50,0.945,1.481,0.980,1.757,1.211,0.516,0.942,0.867,��,4.7,��
2017/08/22,17:00,0.949,1.484,0.976,1.758,1.210,0.516,0.940,0.866,��쐼,4.3,��
2017/08/22,17:10,0.950,1.479,0.979,1.758,1.209,0.518,0.939,0.867,��쐼,4.8,��
2017/08/22,17:20,0.946,1.481,0.977,1.758,1.209,0.517,0.939,0.867,��쐼,5.2,�L
2017/08/22,17:30,0.947,1.480,0.977,1.755,1.209,0.518,0.940,0.866,��,5.8,�L
2017/08/22,17:40,0.948,1.479,0.978,1.758,1.208,0.517,0.939,0.864,��쐼,5.1,��
2017/08/22,17:50,0.949,1.482,0.975,1.757,1.210,0.516,0.940,0.865,��쐼,4.9,�L
2017/08/22,18:00,0.946,1.480,0.976,1.753,1.206,0.517,0.939,0.866,��쐼,4.9,�L
2017/08/22,18:10,0.945,1.476,0.976,1.755,1.208,0.518,0.939,0.867,��쐼,5.3,�L
2017/08/22,18:20,0.945,1.478,0.975,1.755,1.207,0.518,0.937,0.865,�쐼,4.4,�L
2017/08/22,18:30,0.945,1.479,0.978,1.756,1.209,0.518,0.939,0.866,�쐼,3.7,�L
2017/08/22,18:40,0.946,1.478,0.977,1.754,1.208,0.517,0.939,0.866,�쐼,2.6,�L
2017/08/22,18:50,0.947,1.480,0.976,1.753,1.211,0.519,0.937,0.865,���k��,1.5,�L
2017/08/22,19:00,0.946,1.478,0.976,1.754,1.206,0.519,0.939,0.867,�k��,4.7,�L
2017/08/22,19:10,0.947,1.476,0.977,1.755,1.208,0.519,0.939,0.864,�k��,6.0,�L
2017/08/22,19:20,0.944,1.479,0.976,1.759,1.207,0.519,0.940,0.864,�k��,5.9,�L
2017/08/22,19:30,0.939,1.467,0.971,1.744,1.203,0.518,0.936,0.866,�k��,6.9,�L
2017/08/22,19:40,0.937,1.457,0.967,1.743,1.195,0.515,0.935,0.863,���k��,3.9,�L
2017/08/22,19:50,0.934,1.459,0.969,1.745,1.195,0.517,0.935,0.865,��,3.9,�L
2017/08/22,20:00,0.935,1.460,0.967,1.746,1.196,0.517,0.933,0.864,���쐼,2.3,�L
2017/08/22,20:10,0.933,1.461,0.968,1.744,1.195,0.514,0.935,0.865,��,1.1,�L
2017/08/22,20:20,0.934,1.458,0.968,1.745,1.196,0.515,0.936,0.865,-,CALM,�L
2017/08/22,20:30,0.933,1.459,0.967,1.745,1.198,0.514,0.934,0.866,��,2.8,�L
2017/08/22,20:40,0.931,1.456,0.965,1.741,1.196,0.514,0.935,0.864,��,3.7,�L
2017/08/22,20:50,0.927,1.446,0.963,1.740,1.193,0.514,0.931,0.861,��,2.3,�L
2017/08/22,21:00,0.925,1.445,0.961,1.737,1.192,0.512,0.930,0.863,��,1.7,�L
2017/08/22,21:10,0.922,1.437,0.961,1.730,1.184,0.511,0.930,0.862,��,1.7,�L
2017/08/22,21:20,0.918,1.434,0.959,1.725,1.184,0.509,0.930,0.860,���k��,1.4,�L
2017/08/22,21:30,0.914,1.433,0.954,1.725,1.182,0.510,0.928,0.861,��,1.7,�L
2017/08/22,21:40,0.917,1.433,0.955,1.720,1.183,0.510,0.929,0.861,��,1.7,�L
2017/08/22,21:50,0.915,1.433,0.956,1.721,1.182,0.511,0.926,0.860,��,2.0,�L
2017/08/22,22:00,0.914,1.430,0.954,1.717,1.180,0.509,0.924,0.860,���쐼,3.1,�L
2017/08/22,22:10,0.912,1.424,0.950,1.713,1.175,0.510,0.924,0.859,���쐼,4.5,�L
2017/08/22,22:20,0.909,1.416,0.948,1.705,1.166,0.508,0.922,0.856,�쐼,2.2,�L
2017/08/22,22:30,0.908,1.420,0.949,1.706,1.172,0.509,0.921,0.857,�쐼,3.1,�L
2017/08/22,22:40,0.908,1.419,0.950,1.710,1.170,0.508,0.921,0.856,��,2.6,�L
2017/08/22,22:50,0.913,1.420,0.950,1.709,1.169,0.509,0.923,0.856,���쐼,1.2,��
2017/08/22,23:00,0.911,1.425,0.951,1.709,1.168,0.509,0.922,0.856,���쐼,1.7,�L
2017/08/22,23:10,0.909,1.423,0.951,1.708,1.172,0.508,0.921,0.855,�쐼,1.5,�L
2017/08/22,23:20,0.909,1.423,0.947,1.711,1.174,0.508,0.923,0.855,�쐼,2.2,�L
2017/08/22,23:30,0.912,1.425,0.948,1.713,1.173,0.508,0.923,0.855,�쐼,3.7,��
2017/08/22,23:40,0.913,1.423,0.948,1.708,1.175,0.507,0.923,0.856,�쐼,4.9,��
2017/08/22,23:50,0.913,1.426,0.948,1.709,1.171,0.508,0.924,0.856,�쐼,4.9,��
